| time (UTC) | temp F | wind direction | speed MPH | gust MPH | rain 1hr in | rain 24hr in | rain mn in | humidity % | barometer mb |
| 20260901035531 | 54 | 0 | 0.0 | 1.0 | 0.00 | 0.00 | 0.00 | 100 | 1020.2 |
| 20260901035034 | 54 | 0 | 0.0 | 0.0 | 0.00 | 0.00 | 0.00 | 100 | 1020.2 |
| 20260901034555 | 54 | 0 | 0.0 | 0.0 | 0.00 | 0.00 | 0.00 | 100 | 1020.2 |
| 20260901034032 | 54 | 0 | 0.0 | 2.0 | 0.00 | 0.00 | 0.00 | 100 | 1020.2 |
| 20260901033534 | 54 | 0 | 0.0 | 2.0 | 0.00 | 0.00 | 0.00 | 100 | 1020.2 |
| 20260901033110 | 54 | 0 | 0.0 | 2.0 | 0.00 | 0.00 | 0.00 | 100 | 1020.2 |
| 20260901032532 | 54 | 0 | 0.0 | 2.0 | 0.00 | 0.00 | 0.00 | 100 | 1020.3 |
| 20260901032031 | 54 | 0 | 0.0 | 0.0 | 0.00 | 0.00 | 0.00 | 100 | 1020.3 |
| 20260901031554 | 54 | 0 | 0.0 | 1.0 | 0.00 | 0.00 | 0.00 | 100 | 1020.2 |
| 20260901031035 | 55 | 0 | 0.0 | 1.0 | 0.00 | 0.00 | 0.00 | 100 | 1020.3 |
| 20260901030533 | 55 | 0 | 0.0 | 1.0 | 0.00 | 0.00 | 0.00 | 100 | 1020.2 |
| 20260901030050 | 55 | 0 | 0.0 | 2.0 | 0.00 | 0.00 | 0.00 | 100 | 1020.2 |
| 20260901025534 | 55 | 0 | 0.0 | 3.0 | 0.00 | 0.02 | 0.00 | 100 | 1020.3 |
| 20260901025033 | 55 | 0 | 0.0 | 3.0 | 0.00 | 0.02 | 0.00 | 100 | 1020.2 |
| 20260901024550 | 55 | 0 | 0.0 | 3.0 | 0.00 | 0.02 | 0.00 | 100 | 1020.2 |
| 20260901024032 | 55 | 0 | 0.0 | 1.0 | 0.00 | 0.02 | 0.00 | 100 | 1020.2 |
| 20260901023531 | 55 | 0 | 0.0 | 0.0 | 0.00 | 0.02 | 0.00 | 100 | 1020.2 |
| 20260901023052 | 55 | 0 | 0.0 | 0.0 | 0.00 | 0.02 | 0.00 | 100 | 1020.1 |
| 20260901022535 | 56 | 0 | 0.0 | 0.0 | 0.00 | 0.02 | 0.00 | 100 | 1020.2 |
| 20260901022033 | 56 | 0 | 0.0 | 3.0 | 0.00 | 0.02 | 0.00 | 100 | 1020.1 |
| 20260901021554 | 56 | 0 | 0.0 | 3.0 | 0.00 | 0.02 | 0.00 | 100 | 1020.2 |
| 20260901021034 | 56 | 0 | 0.0 | 1.0 | 0.00 | 0.02 | 0.00 | 100 | 1020.2 |
| 20260901020535 | 56 | 0 | 0.0 | 1.0 | 0.00 | 0.02 | 0.00 | 100 | 1020.2 |
| 20260901020044 | 56 | 0 | 0.0 | 3.0 | 0.00 | 0.02 | 0.00 | 100 | 1020.2 |
| 20260901015533 | 56 | 0 | 0.0 | 3.0 | 0.00 | 0.03 | 0.00 | 100 | 1020.2 |
| 20260901015528 | 56 | 0 | 0.0 | 2.0 | 0.00 | 0.03 | 0.00 | 100 | 1020.2 |
| 20260901014033 | 57 | 0 | 0.0 | 4.0 | 0.00 | 0.03 | 0.00 | 100 | 1020.2 |
| 20260901013534 | 57 | 248 | 0.0 | 3.0 | 0.00 | 0.03 | 0.00 | 100 | 1020.1 |
| 20260901013047 | 57 | 264 | 0.0 | 3.0 | 0.00 | 0.03 | 0.00 | 100 | 1020.1 |
| 20260901012531 | 57 | 0 | 0.0 | 4.0 | 0.00 | 0.03 | 0.00 | 100 | 1020.0 |
| 20260901012031 | 57 | 230 | 0.0 | 4.0 | 0.00 | 0.03 | 0.00 | 100 | 1020.0 |
| 20260901011555 | 57 | 0 | 0.0 | 4.0 | 0.00 | 0.03 | 0.00 | 100 | 1020.0 |
| 20260901011035 | 57 | 248 | 0.0 | 4.0 | 0.00 | 0.03 | 0.00 | 100 | 1020.0 |
| 20260901010532 | 57 | 0 | 0.0 | 4.0 | 0.00 | 0.03 | 0.00 | 100 | 1019.9 |
| 20260901010054 | 57 | 0 | 0.0 | 5.0 | 0.00 | 0.03 | 0.00 | 100 | 1019.9 |
| 20260901005534 | 57 | 254 | 1.0 | 5.0 | 0.00 | 0.18 | 0.00 | 100 | 1019.8 |
| 20260901005036 | 57 | 242 | 0.0 | 4.0 | 0.00 | 0.18 | 0.00 | 100 | 1019.9 |
| 20260901004609 | 57 | 286 | 0.0 | 4.0 | 0.00 | 0.18 | 0.00 | 100 | 1019.9 |
| 20260901004035 | 57 | 0 | 1.0 | 4.0 | 0.00 | 0.18 | 0.00 | 100 | 1019.8 |
| 20260901003535 | 57 | 246 | 0.0 | 3.0 | 0.00 | 0.18 | 0.00 | 100 | 1019.9 |
| 20260901003048 | 57 | 0 | 0.0 | 4.0 | 0.00 | 0.18 | 0.00 | 100 | 1019.8 |
| 20260901002532 | 57 | 0 | 0.0 | 7.0 | 0.00 | 0.18 | 0.00 | 100 | 1019.7 |
| 20260901002033 | 58 | 0 | 1.0 | 7.0 | 0.00 | 0.18 | 0.00 | 100 | 1019.7 |
| 20260901001559 | 58 | 0 | 0.0 | 4.0 | 0.00 | 0.18 | 0.00 | 100 | 1019.7 |
| 20260901001034 | 58 | 0 | 1.0 | 4.0 | 0.00 | 0.18 | 0.00 | 100 | 1019.7 |
| 20260901000531 | 58 | 0 | 0.0 | 4.0 | 0.00 | 0.18 | 0.00 | 100 | 1019.7 |
| 20260901000103 | 58 | 0 | 0.0 | 3.0 | 0.00 | 0.18 | 0.00 | 100 | 1019.7 |
| 20260831235538 | 58 | 0 | 0.0 | 2.0 | 0.00 | 0.18 | 0.00 | 100 | 1019.6 |
| 20260831235036 | 58 | 0 | 0.0 | 4.0 | 0.00 | 0.18 | 0.00 | 100 | 1019.7 |
| 20260831234550 | 58 | 0 | 0.0 | 4.0 | 0.00 | 0.18 | 0.00 | 100 | 1019.5 |
| 20260831234033 | 58 | 224 | 0.0 | 4.0 | 0.00 | 0.18 | 0.00 | 100 | 1019.6 |
| 20260831233533 | 58 | 0 | 1.0 | 4.0 | 0.00 | 0.18 | 0.00 | 100 | 1019.6 |
| 20260831233045 | 58 | 258 | 0.0 | 4.0 | 0.00 | 0.18 | 0.00 | 100 | 1019.6 |
| 20260831232533 | 59 | 0 | 0.0 | 4.0 | 0.00 | 0.18 | 0.00 | 100 | 1019.6 |
| 20260831232033 | 59 | 0 | 0.0 | 4.0 | 0.00 | 0.18 | 0.00 | 100 | 1019.6 |
| 20260831231546 | 59 | 0 | 1.0 | 4.0 | 0.00 | 0.18 | 0.00 | 100 | 1019.4 |
| 20260831231034 | 59 | 0 | 0.0 | 3.0 | 0.00 | 0.18 | 0.00 | 100 | 1019.5 |
| 20260831230536 | 59 | 0 | 0.0 | 4.0 | 0.00 | 0.18 | 0.00 | 100 | 1019.4 |
| 20260831230051 | 59 | 256 | 0.0 | 4.0 | 0.00 | 0.18 | 0.00 | 100 | 1019.4 |
| 20260831225533 | 59 | 221 | 0.0 | 4.0 | 0.00 | 0.18 | 0.18 | 100 | 1019.5 |
| 20260831225032 | 59 | 0 | 1.0 | 6.0 | 0.00 | 0.18 | 0.18 | 100 | 1019.5 |
| 20260831224600 | 59 | 253 | 1.0 | 6.0 | 0.00 | 0.18 | 0.18 | 100 | 1019.4 |
| 20260831224032 | 59 | 257 | 0.0 | 6.0 | 0.00 | 0.18 | 0.18 | 100 | 1019.5 |
| 20260831223535 | 59 | 249 | 1.0 | 6.0 | 0.00 | 0.18 | 0.18 | 100 | 1019.7 |
| 20260831223054 | 60 | 0 | 0.0 | 4.0 | 0.00 | 0.18 | 0.18 | 100 | 1019.6 |
| 20260831222533 | 60 | 0 | 0.0 | 7.0 | 0.00 | 0.18 | 0.18 | 100 | 1019.5 |
| 20260831222034 | 60 | 0 | 0.0 | 7.0 | 0.00 | 0.18 | 0.18 | 100 | 1019.6 |
| 20260831221547 | 60 | 242 | 1.0 | 7.0 | 0.00 | 0.18 | 0.18 | 100 | 1019.6 |
| 20260831221033 | 60 | 272 | 2.0 | 7.0 | 0.00 | 0.18 | 0.18 | 100 | 1019.5 |
| 20260831220533 | 60 | 249 | 0.0 | 5.0 | 0.00 | 0.18 | 0.18 | 100 | 1019.5 |
| 20260831220045 | 60 | 252 | 0.0 | 3.0 | 0.00 | 0.18 | 0.18 | 100 | 1019.5 |
| 20260831215533 | 60 | 231 | 0.0 | 3.0 | 0.00 | 0.18 | 0.18 | 100 | 1019.4 |
| 20260831215033 | 60 | 0 | 0.0 | 3.0 | 0.00 | 0.18 | 0.18 | 100 | 1019.4 |
| 20260831214557 | 60 | 0 | 0.0 | 4.0 | 0.00 | 0.18 | 0.18 | 100 | 1019.4 |
| 20260831214037 | 61 | 234 | 1.0 | 5.0 | 0.00 | 0.18 | 0.18 | 100 | 1019.3 |
| 20260831213533 | 61 | 0 | 0.0 | 5.0 | 0.00 | 0.18 | 0.18 | 100 | 1019.2 |
| 20260831213056 | 61 | 239 | 0.0 | 5.0 | 0.00 | 0.18 | 0.18 | 100 | 1019.3 |
| 20260831212534 | 61 | 252 | 1.0 | 4.0 | 0.00 | 0.18 | 0.18 | 100 | 1019.2 |
| 20260831212032 | 61 | 0 | 0.0 | 4.0 | 0.00 | 0.18 | 0.18 | 100 | 1019.1 |
| 20260831211548 | 61 | 0 | 0.0 | 6.0 | 0.00 | 0.18 | 0.18 | 100 | 1019.1 |
| 20260831211033 | 61 | 248 | 1.0 | 6.0 | 0.00 | 0.18 | 0.18 | 100 | 1019.1 |
| 20260831210532 | 62 | 0 | 1.0 | 6.0 | 0.00 | 0.18 | 0.18 | 100 | 1019.1 |
| 20260831210045 | 62 | 265 | 0.0 | 5.0 | 0.00 | 0.18 | 0.18 | 100 | 1018.9 |
| 20260831205534 | 62 | 250 | 0.0 | 3.0 | 0.00 | 0.20 | 0.18 | 100 | 1018.8 |
| 20260831205032 | 62 | 0 | 0.0 | 3.0 | 0.00 | 0.20 | 0.18 | 100 | 1018.7 |
| 20260831204555 | 62 | 0 | 0.0 | 5.0 | 0.00 | 0.20 | 0.18 | 100 | 1018.8 |
| 20260831204033 | 62 | 0 | 1.0 | 5.0 | 0.00 | 0.20 | 0.18 | 100 | 1018.6 |
| 20260831203534 | 62 | 0 | 0.0 | 5.0 | 0.00 | 0.20 | 0.18 | 100 | 1018.6 |
| 20260831203059 | 62 | 237 | 1.0 | 5.0 | 0.00 | 0.20 | 0.18 | 100 | 1018.5 |
| 20260831202533 | 63 | 232 | 1.0 | 4.0 | 0.00 | 0.20 | 0.18 | 100 | 1018.5 |
| 20260831202036 | 63 | 264 | 1.0 | 4.0 | 0.00 | 0.20 | 0.18 | 100 | 1018.4 |
| 20260831201547 | 63 | 0 | 1.0 | 4.0 | 0.00 | 0.20 | 0.18 | 100 | 1018.4 |
| 20260831201033 | 63 | 240 | 1.0 | 4.0 | 0.00 | 0.20 | 0.18 | 100 | 1018.3 |
| 20260831200532 | 63 | 253 | 0.0 | 1.0 | 0.00 | 0.20 | 0.18 | 100 | 1018.2 |
| 20260831200049 | 64 | 0 | 0.0 | 0.0 | 0.00 | 0.20 | 0.18 | 100 | 1018.2 |
| 20260831195534 | 64 | 0 | 0.0 | 3.0 | 0.00 | 0.20 | 0.18 | 100 | 1018.1 |
| 20260831195035 | 64 | 0 | 0.0 | 4.0 | 0.00 | 0.20 | 0.18 | 100 | 1018.1 |
| 20260831194619 | 64 | 239 | 1.0 | 4.0 | 0.00 | 0.20 | 0.18 | 100 | 1018.0 |
| 20260831194035 | 64 | 0 | 0.0 | 4.0 | 0.00 | 0.20 | 0.18 | 100 | 1018.0 |
| 20260831193532 | 65 | 0 | 1.0 | 6.0 | 0.00 | 0.20 | 0.18 | 100 | 1017.9 |
| 20260831193052 | 65 | 263 | 0.0 | 6.0 | 0.00 | 0.20 | 0.18 | 100 | 1017.9 |
| 20260831192533 | 65 | 249 | 1.0 | 6.0 | 0.00 | 0.20 | 0.18 | 100 | 1017.8 |
| 20260831192034 | 65 | 263 | 0.0 | 7.0 | 0.00 | 0.20 | 0.18 | 100 | 1017.8 |
| 20260831191549 | 65 | 238 | 2.0 | 8.0 | 0.00 | 0.20 | 0.18 | 100 | 1017.7 |
| 20260831191034 | 65 | 267 | 3.0 | 8.0 | 0.00 | 0.20 | 0.18 | 100 | 1017.6 |
| 20260831190533 | 66 | 230 | 1.0 | 8.0 | 0.00 | 0.20 | 0.18 | 100 | 1017.6 |
| 20260831190116 | 66 | 277 | 2.0 | 8.0 | 0.00 | 0.20 | 0.18 | 100 | 1017.5 |
| 20260831185532 | 66 | 275 | 2.0 | 7.0 | 0.00 | 0.20 | 0.18 | 100 | 1017.4 |
| 20260831185034 | 66 | 213 | 2.0 | 10.0 | 0.00 | 0.20 | 0.18 | 100 | 1017.4 |
| 20260831184557 | 66 | 151 | 3.0 | 10.0 | 0.00 | 0.20 | 0.18 | 100 | 1017.4 |
| 20260831184035 | 66 | 227 | 2.0 | 7.0 | 0.00 | 0.20 | 0.18 | 100 | 1017.2 |
| 20260831183533 | 66 | 250 | 3.0 | 7.0 | 0.00 | 0.20 | 0.18 | 100 | 1017.3 |
| 20260831183044 | 67 | 229 | 2.0 | 7.0 | 0.00 | 0.20 | 0.18 | 100 | 1017.2 |
| 20260831182535 | 67 | 246 | 1.0 | 5.0 | 0.00 | 0.20 | 0.18 | 100 | 1017.1 |
| 20260831182034 | 67 | 242 | 1.0 | 5.0 | 0.00 | 0.20 | 0.18 | 100 | 1017.0 |
| 20260831181601 | 67 | 223 | 1.0 | 5.0 | 0.00 | 0.20 | 0.18 | 100 | 1017.1 |
| 20260831181032 | 67 | 242 | 2.0 | 9.0 | 0.00 | 0.20 | 0.18 | 100 | 1017.0 |
| 20260831180535 | 68 | 247 | 2.0 | 10.0 | 0.00 | 0.20 | 0.18 | 100 | 1016.9 |
| 20260831180054 | 68 | 200 | 3.0 | 11.0 | 0.00 | 0.20 | 0.18 | 100 | 1016.7 |
| 20260831175533 | 68 | 248 | 3.0 | 11.0 | 0.00 | 0.20 | 0.18 | 100 | 1016.7 |
| 20260831175033 | 68 | 234 | 5.0 | 11.0 | 0.00 | 0.20 | 0.18 | 100 | 1016.6 |
| 20260831174545 | 69 | 245 | 4.0 | 10.0 | 0.00 | 0.20 | 0.18 | 100 | 1016.5 |
| 20260831174035 | 69 | 241 | 4.0 | 12.0 | 0.00 | 0.20 | 0.18 | 100 | 1016.5 |
| 20260831173533 | 69 | 183 | 3.0 | 12.0 | 0.00 | 0.20 | 0.18 | 100 | 1016.5 |
| 20260831173055 | 69 | 279 | 4.0 | 14.0 | 0.00 | 0.20 | 0.18 | 100 | 1016.3 |
| 20260831172533 | 69 | 242 | 4.0 | 14.0 | 0.00 | 0.20 | 0.18 | 100 | 1016.3 |
| 20260831172033 | 69 | 198 | 3.0 | 11.0 | 0.00 | 0.20 | 0.18 | 100 | 1016.3 |
| 20260831171551 | 69 | 261 | 2.0 | 11.0 | 0.00 | 0.20 | 0.18 | 100 | 1016.2 |
| 20260831171033 | 70 | 221 | 4.0 | 11.0 | 0.00 | 0.20 | 0.18 | 100 | 1016.1 |
| 20260831170535 | 70 | 188 | 2.0 | 8.0 | 0.00 | 0.20 | 0.18 | 100 | 1016.0 |
| 20260831170059 | 70 | 250 | 2.0 | 8.0 | 0.00 | 0.20 | 0.18 | 100 | 1015.9 |
| 20260831165533 | 70 | 306 | 2.0 | 8.0 | 0.00 | 0.20 | 0.18 | 100 | 1015.8 |
| 20260831165032 | 70 | 249 | 2.0 | 10.0 | 0.00 | 0.20 | 0.18 | 100 | 1015.7 |
| 20260831164558 | 70 | 236 | 3.0 | 10.0 | 0.00 | 0.20 | 0.18 | 100 | 1015.7 |
| 20260831164033 | 70 | 236 | 4.0 | 9.0 | 0.00 | 0.20 | 0.18 | 100 | 1015.6 |
| 20260831163533 | 71 | 244 | 3.0 | 11.0 | 0.00 | 0.20 | 0.18 | 100 | 1015.5 |
| 20260831163052 | 72 | 238 | 4.0 | 14.0 | 0.00 | 0.20 | 0.18 | 100 | 1015.4 |
| 20260831162532 | 72 | 192 | 4.0 | 14.0 | 0.00 | 0.20 | 0.18 | 100 | 1015.5 |
| 20260831162033 | 72 | 294 | 5.0 | 11.0 | 0.00 | 0.20 | 0.18 | 100 | 1015.3 |
| 20260831161550 | 72 | 252 | 5.0 | 15.0 | 0.00 | 0.20 | 0.18 | 100 | 1015.3 |
| 20260831161034 | 71 | 227 | 6.0 | 15.0 | 0.00 | 0.20 | 0.18 | 100 | 1015.4 |
| 20260831160532 | 71 | 343 | 2.0 | 10.0 | 0.00 | 0.20 | 0.18 | 100 | 1015.2 |
| 20260831160056 | 71 | 130 | 3.0 | 10.0 | 0.00 | 0.20 | 0.18 | 100 | 1015.3 |
| 20260831155533 | 71 | 253 | 4.0 | 9.0 | 0.00 | 0.20 | 0.18 | 100 | 1015.2 |
| 20260831155033 | 72 | 183 | 2.0 | 12.0 | 0.00 | 0.20 | 0.18 | 100 | 1015.1 |
| 20260831154617 | 72 | 259 | 4.0 | 12.0 | 0.00 | 0.20 | 0.18 | 100 | 1015.2 |
| 20260831154032 | 72 | 217 | 4.0 | 11.0 | 0.00 | 0.20 | 0.18 | 100 | 1015.1 |
| 20260831153536 | 73 | 247 | 5.0 | 12.0 | 0.00 | 0.20 | 0.18 | 100 | 1015.2 |
| 20260831153118 | 73 | 224 | 4.0 | 12.0 | 0.00 | 0.20 | 0.18 | 100 | 1015.0 |
| 20260831152535 | 73 | 252 | 2.0 | 9.0 | 0.00 | 0.20 | 0.18 | 100 | 1015.0 |
| 20260831152033 | 72 | 248 | 4.0 | 13.0 | 0.00 | 0.20 | 0.18 | 100 | 1015.0 |
| 20260831151610 | 72 | 257 | 5.0 | 14.0 | 0.00 | 0.20 | 0.18 | 100 | 1015.0 |
| 20260831151033 | 72 | 237 | 5.0 | 14.0 | 0.00 | 0.20 | 0.18 | 100 | 1014.9 |
| 20260831150537 | 72 | 245 | 4.0 | 14.0 | 0.00 | 0.20 | 0.18 | 100 | 1014.9 |
| 20260831150100 | 73 | 184 | 4.0 | 13.0 | 0.00 | 0.20 | 0.18 | 100 | 1014.7 |
| 20260831145533 | 72 | 244 | 5.0 | 13.0 | 0.00 | 0.20 | 0.18 | 100 | 1014.7 |
| 20260831145032 | 72 | 242 | 4.0 | 12.0 | 0.00 | 0.20 | 0.18 | 100 | 1014.7 |
| 20260831144552 | 72 | 197 | 5.0 | 12.0 | 0.00 | 0.20 | 0.18 | 100 | 1014.7 |
| 20260831144033 | 72 | 246 | 5.0 | 12.0 | 0.00 | 0.20 | 0.18 | 100 | 1014.7 |
| 20260831143531 | 71 | 139 | 3.0 | 12.0 | 0.00 | 0.20 | 0.18 | 100 | 1014.6 |
| 20260831143051 | 71 | 229 | 2.0 | 8.0 | 0.00 | 0.20 | 0.18 | 100 | 1014.6 |
| 20260831142531 | 71 | 218 | 3.0 | 10.0 | 0.00 | 0.20 | 0.18 | 100 | 1014.5 |
| 20260831142032 | 71 | 225 | 2.0 | 12.0 | 0.00 | 0.20 | 0.18 | 100 | 1014.5 |
| 20260831141550 | 71 | 286 | 5.0 | 12.0 | 0.00 | 0.20 | 0.18 | 100 | 1014.5 |
| 20260831141032 | 71 | 144 | 3.0 | 10.0 | 0.00 | 0.20 | 0.18 | 100 | 1014.4 |
| 20260831140538 | 71 | 234 | 3.0 | 10.0 | 0.00 | 0.20 | 0.18 | 100 | 1014.4 |
| 20260831140055 | 71 | 306 | 2.0 | 12.0 | 0.00 | 0.20 | 0.18 | 100 | 1014.4 |
| 20260831135532 | 71 | 222 | 3.0 | 12.0 | 0.00 | 0.20 | 0.18 | 100 | 1014.3 |
| 20260831135037 | 70 | 140 | 2.0 | 10.0 | 0.00 | 0.20 | 0.18 | 100 | 1014.4 |
| 20260831134601 | 70 | 268 | 3.0 | 10.0 | 0.00 | 0.20 | 0.18 | 100 | 1014.5 |
| 20260831134031 | 69 | 16 | 1.0 | 9.0 | 0.00 | 0.20 | 0.18 | 100 | 1014.4 |
| 20260831133533 | 68 | 336 | 2.0 | 8.0 | 0.00 | 0.20 | 0.18 | 100 | 1014.4 |
| 20260831133102 | 68 | 250 | 3.0 | 10.0 | 0.00 | 0.20 | 0.18 | 100 | 1014.4 |
| 20260831132533 | 68 | 207 | 3.0 | 10.0 | 0.00 | 0.20 | 0.18 | 100 | 1014.3 |
| 20260831132034 | 69 | 198 | 2.0 | 10.0 | 0.00 | 0.20 | 0.18 | 100 | 1014.3 |
| 20260831131554 | 70 | 241 | 2.0 | 12.0 | 0.00 | 0.20 | 0.18 | 100 | 1014.1 |
| 20260831131035 | 70 | 249 | 3.0 | 12.0 | 0.00 | 0.20 | 0.18 | 100 | 1013.9 |
| 20260831130531 | 70 | 211 | 3.0 | 11.0 | 0.00 | 0.20 | 0.18 | 100 | 1013.9 |
| 20260831130058 | 69 | 244 | 4.0 | 11.0 | 0.00 | 0.20 | 0.18 | 100 | 1013.9 |
| 20260831125531 | 69 | 171 | 4.0 | 11.0 | 0.00 | 0.20 | 0.18 | 100 | 1013.8 |
| 20260831125032 | 69 | 246 | 3.0 | 12.0 | 0.00 | 0.20 | 0.18 | 100 | 1013.8 |
| 20260831124551 | 69 | 221 | 4.0 | 12.0 | 0.00 | 0.20 | 0.18 | 100 | 1013.9 |
| 20260831124031 | 69 | 210 | 3.0 | 10.0 | 0.00 | 0.20 | 0.18 | 100 | 1013.6 |
| 20260831123531 | 68 | 310 | 1.0 | 7.0 | 0.00 | 0.20 | 0.18 | 100 | 1013.5 |
| 20260831123048 | 67 | 0 | 0.0 | 4.0 | 0.00 | 0.20 | 0.18 | 100 | 1013.6 |
| 20260831122533 | 66 | 0 | 0.0 | 8.0 | 0.00 | 0.20 | 0.18 | 100 | 1013.6 |
| 20260831122033 | 66 | 238 | 0.0 | 9.0 | 0.00 | 0.20 | 0.18 | 100 | 1013.5 |
| 20260831121546 | 66 | 0 | 2.0 | 9.0 | 0.00 | 0.20 | 0.18 | 100 | 1013.4 |
| 20260831121032 | 66 | 253 | 0.0 | 5.0 | 0.00 | 0.20 | 0.18 | 100 | 1013.3 |
| 20260831120532 | 66 | 292 | 0.0 | 5.0 | 0.00 | 0.20 | 0.18 | 100 | 1013.2 |
| 20260831120051 | 65 | 0 | 0.0 | 5.0 | 0.00 | 0.20 | 0.18 | 100 | 1013.2 |
| 20260831115532 | 65 | 0 | 0.0 | 4.0 | 0.00 | 0.20 | 0.18 | 100 | 1013.0 |
| 20260831115031 | 65 | 0 | 0.0 | 3.0 | 0.00 | 0.20 | 0.18 | 100 | 1013.1 |
| 20260831114553 | 65 | 0 | 0.0 | 8.0 | 0.00 | 0.20 | 0.18 | 100 | 1013.0 |
| 20260831114031 | 65 | 0 | 0.0 | 8.0 | 0.00 | 0.20 | 0.18 | 100 | 1012.9 |
| 20260831113533 | 65 | 209 | 2.0 | 8.0 | 0.00 | 0.20 | 0.18 | 100 | 1012.8 |
| 20260831113048 | 65 | 0 | 0.0 | 8.0 | 0.00 | 0.20 | 0.18 | 100 | 1012.9 |
| 20260831112532 | 65 | 194 | 0.0 | 7.0 | 0.00 | 0.19 | 0.18 | 100 | 1012.8 |
| 20260831112032 | 65 | 0 | 0.0 | 8.0 | 0.00 | 0.19 | 0.18 | 100 | 1012.6 |
| 20260831111545 | 65 | 0 | 0.0 | 8.0 | 0.00 | 0.19 | 0.18 | 100 | 1012.5 |
| 20260831111031 | 65 | 0 | 1.0 | 7.0 | 0.00 | 0.19 | 0.18 | 100 | 1012.6 |
| 20260831110532 | 66 | 0 | 0.0 | 10.0 | 0.00 | 0.19 | 0.18 | 100 | 1012.4 |
| 20260831110057 | 65 | 0 | 1.0 | 10.0 | 0.00 | 0.19 | 0.18 | 100 | 1012.4 |
| 20260831105535 | 65 | 0 | 0.0 | 10.0 | 0.00 | 0.19 | 0.18 | 100 | 1012.2 |
| 20260831105031 | 64 | 0 | 2.0 | 10.0 | 0.00 | 0.19 | 0.18 | 100 | 1012.3 |
| 20260831104557 | 64 | 221 | 2.0 | 10.0 | 0.00 | 0.19 | 0.18 | 100 | 1012.3 |
| 20260831104030 | 64 | 252 | 1.0 | 9.0 | 0.00 | 0.19 | 0.18 | 100 | 1012.2 |
| 20260831103531 | 64 | 203 | 2.0 | 9.0 | 0.00 | 0.19 | 0.18 | 100 | 1012.2 |
| 20260831103048 | 64 | 0 | 1.0 | 9.0 | 0.00 | 0.19 | 0.18 | 100 | 1012.1 |
| 20260831102533 | 64 | 0 | 3.0 | 11.0 | 0.00 | 0.19 | 0.18 | 100 | 1012.1 |
| 20260831102032 | 64 | 347 | 3.0 | 11.0 | 0.00 | 0.19 | 0.18 | 100 | 1012.1 |
| 20260831101548 | 63 | 256 | 2.0 | 9.0 | 0.00 | 0.19 | 0.18 | 100 | 1012.0 |
| 20260831101032 | 63 | 233 | 4.0 | 9.0 | 0.00 | 0.19 | 0.18 | 100 | 1011.9 |
| 20260831100532 | 63 | 186 | 3.0 | 10.0 | 0.00 | 0.19 | 0.18 | 100 | 1011.8 |
| 20260831100053 | 62 | 221 | 3.0 | 11.0 | 0.00 | 0.19 | 0.18 | 100 | 1011.8 |
| 20260831095534 | 62 | 255 | 3.0 | 11.0 | 0.00 | 0.19 | 0.18 | 100 | 1011.7 |
| 20260831095031 | 62 | 262 | 4.0 | 10.0 | 0.00 | 0.19 | 0.18 | 100 | 1011.7 |
| 20260831094559 | 62 | 150 | 2.0 | 10.0 | 0.00 | 0.19 | 0.18 | 100 | 1011.7 |
| 20260831094035 | 62 | 0 | 2.0 | 9.0 | 0.00 | 0.19 | 0.18 | 100 | 1011.6 |
| 20260831093532 | 62 | 269 | 3.0 | 13.0 | 0.00 | 0.19 | 0.18 | 100 | 1011.5 |
| 20260831093133 | 62 | 250 | 3.0 | 13.0 | 0.00 | 0.19 | 0.18 | 100 | 1011.5 |
| 20260831092534 | 61 | 250 | 2.0 | 12.0 | 0.00 | 0.19 | 0.18 | 100 | 1011.3 |
| 20260831092034 | 61 | 273 | 3.0 | 12.0 | 0.00 | 0.19 | 0.18 | 100 | 1011.4 |
| 20260831091556 | 61 | 224 | 3.0 | 10.0 | 0.00 | 0.19 | 0.18 | 100 | 1011.2 |
| 20260831091032 | 61 | 198 | 2.0 | 9.0 | 0.00 | 0.19 | 0.18 | 100 | 1011.2 |
| 20260831090531 | 61 | 0 | 1.0 | 10.0 | 0.00 | 0.19 | 0.18 | 100 | 1011.2 |
| 20260831090048 | 61 | 188 | 1.0 | 14.0 | 0.00 | 0.19 | 0.18 | 100 | 1011.0 |
| 20260831085532 | 61 | 243 | 4.0 | 14.0 | 0.00 | 0.19 | 0.18 | 100 | 1011.0 |
| 20260831085035 | 61 | 257 | 3.0 | 10.0 | 0.00 | 0.19 | 0.18 | 100 | 1010.9 |
| 20260831084628 | 61 | 269 | 3.0 | 10.0 | 0.00 | 0.19 | 0.18 | 100 | 1010.8 |
| 20260831084032 | 61 | 282 | 2.0 | 9.0 | 0.00 | 0.19 | 0.18 | 100 | 1010.8 |
| 20260831083532 | 61 | 232 | 2.0 | 9.0 | 0.00 | 0.19 | 0.18 | 100 | 1010.7 |
| 20260831083056 | 60 | 209 | 3.0 | 11.0 | 0.00 | 0.19 | 0.18 | 100 | 1010.6 |
| 20260831082534 | 60 | 271 | 3.0 | 11.0 | 0.00 | 0.19 | 0.18 | 100 | 1010.4 |
| 20260831082034 | 60 | 223 | 3.0 | 11.0 | 0.00 | 0.19 | 0.18 | 100 | 1010.2 |
| 20260831081547 | 60 | 153 | 4.0 | 11.0 | 0.00 | 0.19 | 0.18 | 100 | 1010.1 |
| 20260831081034 | 59 | 157 | 3.0 | 11.0 | 0.00 | 0.19 | 0.18 | 100 | 1010.1 |
| 20260831080532 | 59 | 240 | 2.0 | 12.0 | 0.00 | 0.19 | 0.18 | 100 | 1010.0 |
| 20260831080109 | 59 | 260 | 4.0 | 12.0 | 0.00 | 0.19 | 0.18 | 100 | 1009.9 |
| 20260831075532 | 59 | 221 | 3.0 | 12.0 | 0.00 | 0.19 | 0.18 | 100 | 1009.8 |
| 20260831075033 | 59 | 182 | 4.0 | 12.0 | 0.00 | 0.19 | 0.18 | 100 | 1009.8 |
| 20260831074553 | 58 | 175 | 4.0 | 12.0 | 0.00 | 0.19 | 0.18 | 100 | 1009.7 |
| 20260831074033 | 58 | 232 | 3.0 | 10.0 | 0.00 | 0.19 | 0.18 | 100 | 1009.6 |
| 20260831073533 | 58 | 259 | 3.0 | 9.0 | 0.00 | 0.19 | 0.18 | 100 | 1009.7 |
| 20260831073048 | 58 | 229 | 3.0 | 11.0 | 0.00 | 0.19 | 0.18 | 100 | 1009.6 |
| 20260831072533 | 57 | 166 | 1.0 | 11.0 | 0.00 | 0.19 | 0.18 | 100 | 1009.6 |
| 20260831072034 | 57 | 211 | 3.0 | 10.0 | 0.00 | 0.19 | 0.18 | 100 | 1009.5 |
| 20260831071548 | 57 | 230 | 3.0 | 11.0 | 0.00 | 0.19 | 0.18 | 100 | 1009.5 |
| 20260831071033 | 57 | 187 | 3.0 | 11.0 | 0.00 | 0.19 | 0.18 | 100 | 1009.4 |
| 20260831070534 | 57 | 243 | 3.0 | 10.0 | 0.00 | 0.19 | 0.18 | 100 | 1009.3 |
| 20260831070057 | 57 | 269 | 4.0 | 10.0 | 0.00 | 0.19 | 0.18 | 100 | 1009.4 |
| 20260831065535 | 56 | 298 | 3.0 | 9.0 | 0.00 | 0.19 | 0.18 | 100 | 1009.2 |
| 20260831065037 | 56 | 244 | 3.0 | 10.0 | 0.00 | 0.19 | 0.18 | 100 | 1009.1 |
| 20260831064557 | 56 | 195 | 3.0 | 10.0 | 0.00 | 0.19 | 0.18 | 100 | 1009.0 |
| 20260831064030 | 56 | 265 | 2.0 | 10.0 | 0.00 | 0.19 | 0.18 | 100 | 1008.8 |
| 20260831063533 | 56 | 0 | 3.0 | 12.0 | 0.00 | 0.19 | 0.18 | 100 | 1008.9 |
| 20260831063103 | 56 | 243 | 4.0 | 12.0 | 0.00 | 0.19 | 0.18 | 100 | 1008.8 |
| 20260831062534 | 56 | 213 | 1.0 | 10.0 | 0.00 | 0.19 | 0.18 | 100 | 1008.7 |
| 20260831062033 | 56 | 268 | 3.0 | 10.0 | 0.00 | 0.19 | 0.18 | 100 | 1008.8 |
| 20260831061547 | 56 | 244 | 1.0 | 8.0 | 0.00 | 0.19 | 0.18 | 100 | 1008.6 |
| 20260831061033 | 55 | 232 | 2.0 | 8.0 | 0.00 | 0.19 | 0.18 | 100 | 1008.5 |
| 20260831060533 | 55 | 236 | 1.0 | 7.0 | 0.00 | 0.19 | 0.18 | 100 | 1008.5 |
| 20260831060050 | 55 | 250 | 2.0 | 7.0 | 0.00 | 0.19 | 0.18 | 100 | 1008.4 |
| 20260831055532 | 55 | 255 | 2.0 | 7.0 | 0.00 | 0.19 | 0.18 | 100 | 1008.3 |
| 20260831055034 | 55 | 217 | 1.0 | 6.0 | 0.00 | 0.19 | 0.18 | 100 | 1008.2 |
| 20260831054556 | 55 | 0 | 1.0 | 10.0 | 0.00 | 0.19 | 0.18 | 100 | 1008.1 |
| 20260831054033 | 55 | 0 | 2.0 | 10.0 | 0.00 | 0.19 | 0.18 | 100 | 1008.0 |
| 20260831053531 | 55 | 197 | 2.0 | 10.0 | 0.00 | 0.19 | 0.18 | 100 | 1008.0 |
| 20260831053100 | 55 | 249 | 2.0 | 8.0 | 0.00 | 0.19 | 0.18 | 100 | 1007.9 |
| 20260831052530 | 55 | 242 | 1.0 | 6.0 | 0.00 | 0.19 | 0.18 | 100 | 1007.9 |
| 20260831052032 | 55 | 262 | 1.0 | 8.0 | 0.00 | 0.19 | 0.18 | 100 | 1007.8 |
| 20260831051550 | 55 | 241 | 1.0 | 8.0 | 0.00 | 0.19 | 0.18 | 100 | 1007.8 |
| 20260831051032 | 55 | 236 | 1.0 | 7.0 | 0.00 | 0.19 | 0.18 | 100 | 1007.7 |
| 20260831050532 | 55 | 221 | 1.0 | 5.0 | 0.00 | 0.19 | 0.18 | 100 | 1007.6 |
| 20260831050052 | 55 | 211 | 0.0 | 6.0 | 0.00 | 0.19 | 0.18 | 100 | 1007.6 |
| 20260831045534 | 55 | 248 | 0.0 | 6.0 | 0.00 | 0.19 | 0.18 | 100 | 1007.4 |
| 20260831045032 | 55 | 280 | 0.0 | 8.0 | 0.00 | 0.19 | 0.18 | 100 | 1007.4 |
| 20260831044555 | 55 | 0 | 1.0 | 8.0 | 0.00 | 0.19 | 0.18 | 100 | 1007.3 |
| 20260831044031 | 55 | 215 | 2.0 | 8.0 | 0.00 | 0.19 | 0.18 | 100 | 1007.2 |
| 20260831043531 | 55 | 0 | 1.0 | 8.0 | 0.00 | 0.19 | 0.18 | 100 | 1007.2 |
| 20260831043052 | 55 | 244 | 1.0 | 7.0 | 0.00 | 0.19 | 0.18 | 100 | 1007.2 |
| 20260831042532 | 55 | 190 | 2.0 | 6.0 | 0.00 | 0.19 | 0.18 | 100 | 1007.2 |
| 20260831042033 | 55 | 257 | 1.0 | 7.0 | 0.00 | 0.19 | 0.18 | 100 | 1007.2 |
| 20260831041558 | 55 | 255 | 2.0 | 9.0 | 0.00 | 0.19 | 0.18 | 100 | 1007.1 |
| 20260831041032 | 55 | 246 | 2.0 | 9.0 | 0.00 | 0.19 | 0.18 | 100 | 1007.1 |
| 20260831040532 | 55 | 0 | 2.0 | 7.0 | 0.00 | 0.19 | 0.18 | 100 | 1007.1 |